[[{"header":{"parameterUnit":"m.s-1","parameterCategory":1,"la1":30.2991,"la2":30.254,"lo1":-89.0895,"lo2":-89.0444,"dy":0.0017,"dx":0.0017,"nx":28,"ny":28,"refTime":"2024-07-05T21:00:00:Z","depth":0,"parameterNumber":2,"parameterNumberName":"U-component_of_WINDS"},"data":[0,0,0,0,0,0,0,0,0,0,0,0,0,0,0,0,0,0,0,0,0,0,0,0,0,0,0,0,0,0,0,0,0,0,0,0,0,0,0,0,0,0,0,0,0,0,0,0,0,0,0,0,0,0,0,0,0,0,2.4757,2.4758,0,2.4856,2.4858,2.4859,2.4875,2.4874,2.4873,2.4872,2.4975,2.4978,2.4982,0,0,0,0,0,0,0,0,0,0,0,0,0,2.4584,2.4587,2.4757,2.4759,2.476,2.4856,2.4858,2.4859,2.4875,2.4874,2.4873,2.4872,2.4974,2.4978,2.4982,0,0,0,0,0,0,0,0,0,0,0,0,0,2.4669,2.4588,2.4757,2.4779,2.4782,2.4856,2.4858,2.4859,2.4875,2.4874,2.4872,2.4871,2.4972,2.4977,2.4983,2.5041,0,0,2.4999,2.5001,0,0,0,0,0,0,0,0,2.4664,2.4675,2.4775,2.4778,2.4781,2.4852,2.4834,2.492,2.4875,2.484,2.4872,2.487,2.4935,2.4943,2.4965,2.5046,2.5051,2.4999,2.5003,2.5005,2.5006,0,0,0,0,0,0,0,2.4658,2.4671,2.4797,2.4776,2.478,2.4785,2.4796,2.4851,2.4894,2.4843,2.4844,2.4856,2.4937,2.496,2.4967,2.5052,2.4999,2.5004,2.5007,2.5009,2.5188,2.519,0,0,0,0,0,0,2.4648,2.4666,2.4793,2.48,2.4718,2.4789,2.4801,2.4831,2.4893,2.4901,2.4857,2.4856,2.4951,2.4961,2.4971,2.5044,2.5005,2.501,2.5013,2.5187,2.5189,2.519,0,0,0,0,0,0,2.4644,2.4659,2.4789,2.4733,2.475,2.4794,2.4827,2.4833,2.4856,2.4903,2.4911,2.4872,2.495,2.4963,2.5024,2.5048,2.5012,2.5017,2.5185,2.5187,2.5189,2.5191,0,0,0,0,0,0,2.4639,2.4658,2.468,2.4734,2.4753,2.484,2.4828,2.4836,2.4865,2.4865,2.492,2.4928,2.495,2.5016,2.5029,2.5055,2.5021,2.5183,2.5186,2.5189,2.5189,2.5193,2.5197,0,0,0,0,0,2.4633,2.4676,2.4681,2.4696,2.4782,2.4841,2.4853,2.4877,2.4867,2.489,2.4921,2.4926,2.5043,2.5022,2.5037,2.5064,2.5181,2.5185,2.5188,2.5187,2.5192,2.5196,0,0,0,0,0,0,2.4624,2.4684,2.4689,2.4751,2.4791,2.4844,2.4873,2.4882,2.4925,2.4924,2.4953,2.4965,2.5024,2.5051,2.5026,2.5125,2.5112,2.5118,2.5106,2.5111,2.5115,2.5107,2.5026,0,0,0,0,0,2.463,2.4673,2.4723,2.4773,2.4792,2.483,2.4856,2.4872,2.4915,2.4932,2.4967,2.5008,2.5055,2.5084,2.513,2.5193,2.5206,2.522,2.5224,2.5227,2.5232,2.5268,2.5275,2.5202,2.5202,2.5202,0,0,2.4641,2.4679,2.4704,2.4772,2.4804,2.4849,2.4843,2.4891,2.4924,2.4939,2.4998,2.5025,2.5074,2.5136,2.5166,2.516,2.5255,2.5231,2.5233,2.5237,2.5272,2.5279,2.5285,2.5204,2.5204,2.5203,0,0,2.4684,2.4717,2.4762,2.4796,2.4845,2.487,2.4881,2.4933,2.4952,2.5012,2.5024,2.5065,2.5144,2.5178,2.5206,2.5264,2.5271,2.5278,2.5298,2.5333,2.5338,2.5344,2.5364,2.5371,2.5283,2.5283,2.5283,0,2.4692,2.4759,2.4785,2.4832,2.4862,2.4878,2.4924,2.4955,2.5017,2.5038,2.5031,2.5131,2.5165,2.5236,2.525,2.5272,2.5286,2.5271,2.5335,2.5341,2.5346,2.5366,2.5374,2.5284,2.5284,2.5284,2.5284,0,2.4766,2.4813,2.4844,2.4903,2.4936,2.4983,2.5017,2.5048,2.5061,2.5087,2.5148,2.519,2.5244,2.5262,2.5276,2.5336,2.5331,2.5329,2.5316,2.5353,2.5373,2.538,2.5284,2.5284,2.5284,2.5284,0,0,2.4804,2.4879,2.489,2.4918,2.4974,2.5011,2.5059,2.5112,2.5138,2.5181,2.5222,2.529,2.5289,2.5321,2.5338,2.5369,2.5413,2.5364,2.5366,2.5372,2.5482,2.5482,2.549,2.5418,2.542,2.5421,2.5477,0,2.4854,2.4939,2.4965,2.5037,2.5081,2.5098,2.514,2.5179,2.5205,2.5247,2.5276,2.5323,2.5319,2.5338,2.5369,2.5401,2.5435,2.5397,2.5457,2.5459,2.5443,2.55,2.55,2.5551,2.5485,2.5487,2.5488,0,2.4922,2.4967,2.5043,2.5095,2.5115,2.5152,2.5203,2.5242,2.5288,2.5305,2.5341,2.5357,2.5408,2.5393,2.5465,2.5439,2.5465,2.5485,2.5487,2.5493,2.5475,2.5507,2.5568,2.5575,2.55,2.5499,2.5498,0,2.4942,2.5021,2.5077,2.5101,2.5163,2.5189,2.5216,2.5261,2.5292,2.5337,2.5357,2.5408,2.5435,2.5475,2.5504,2.549,2.5573,2.5561,2.5589,2.5588,2.5605,2.5603,2.567,2.5623,2.5623,2.5623,2.5623,0,2.4994,2.504,2.5087,2.5121,2.5174,2.5204,2.5255,2.5283,2.5324,2.5364,2.5383,2.542,2.5457,2.55,2.5524,2.558,2.5592,2.5607,2.5613,2.5605,2.5603,2.5622,2.5619,2.5625,2.5624,2.5624,2.5624,0,2.5025,2.5058,2.512,2.5175,2.519,2.5226,2.5273,2.5308,2.5335,2.5386,2.54,2.5443,2.5495,2.5528,2.5594,2.561,2.5671,2.5676,2.5655,2.5658,2.5684,2.5681,2.5765,2.5777,2.5722,2.5723,2.5723,0,2.5055,2.5091,2.515,2.5178,2.5206,2.5252,2.5283,2.5315,2.5347,2.5403,2.5431,2.5484,2.5528,2.561,2.5647,2.5698,2.5704,2.573,2.5712,2.5703,2.5704,2.5701,2.5705,2.5732,2.5733,2.5733,2.5734,0,2.5105,2.5121,2.5165,2.5216,2.5253,2.5295,2.5336,2.5359,2.5398,2.5433,2.5486,2.552,2.5588,2.5641,2.5695,2.5724,2.5736,2.5739,2.5749,2.574,2.5727,2.5734,2.5663,2.5737,2.5737,2.5736,2.5736,2.5736,2.5136,2.5169,2.5216,2.5266,2.53,2.5339,2.5374,2.5407,2.5451,2.5509,2.5525,2.5581,2.5628,2.5702,2.5732,2.5776,2.5773,2.5787,2.579,2.5792,2.5792,2.5721,2.5787,2.5787,2.5786,2.5786,2.5786,0,2.5187,2.5219,2.5264,2.5322,2.5361,2.5369,2.5416,2.5448,2.5497,2.5539,2.5582,2.5644,2.5695,2.5737,2.5791,2.5818,2.5825,2.5831,2.5829,2.5835,2.5792,2.5779,2.5825,2.5825,2.5825,2.5825,2.5825,2.5825,2.5218,2.5274,2.5295,2.5369,2.5401,2.5455,2.5481,2.5518,2.5552,2.562,2.5662,2.569,2.5732,2.5789,2.5837,2.5848,2.5866,2.5871,2.5884,2.5842,2.5838,2.5834,2.5821,2.5875,2.5875,2.5923,2.5923,2.5923]},{"header":{"parameterUnit":"m.s-1","parameterCategory":1,"la1":30.2991,"la2":30.254,"lo1":-89.0895,"lo2":-89.0444,"dy":0.0017,"dx":0.0017,"nx":28,"ny":28,"refTime":"2024-07-05T21:00:00:Z","depth":0,"parameterNumber":3,"parameterNumberName":"V-component_of_WINDS"},"data":[0,0,0,0,0,0,0,0,0,0,0,0,0,0,0,0,0,0,0,0,0,0,0,0,0,0,0,0,0,0,0,0,0,0,0,0,0,0,0,0,0,0,0,0,0,0,0,0,0,0,0,0,0,0,0,0,0,0,3.0686,3.0687,0,3.0753,3.0753,3.0754,3.0788,3.0788,3.0789,3.0789,3.0853,3.0854,3.0856,0,0,0,0,0,0,0,0,0,0,0,0,0,3.0583,3.0585,3.0686,3.0687,3.0688,3.0753,3.0754,3.0754,3.0788,3.0788,3.0789,3.0789,3.0852,3.0854,3.0856,0,0,0,0,0,0,0,0,0,0,0,0,0,3.0636,3.0585,3.0686,3.0713,3.0716,3.0752,3.0754,3.0755,3.0788,3.0788,3.0789,3.0789,3.0851,3.0854,3.0856,3.087,0,0,3.0864,3.0865,0,0,0,0,0,0,0,0,3.0633,3.064,3.0708,3.0711,3.0715,3.0763,3.0741,3.0793,3.0788,3.0761,3.0789,3.0789,3.0822,3.0827,3.0839,3.0873,3.0876,3.0864,3.0866,3.0867,3.0867,0,0,0,0,0,0,0,3.063,3.0637,3.0713,3.0709,3.0713,3.0719,3.0727,3.0751,3.079,3.0763,3.0766,3.0773,3.0824,3.0837,3.0841,3.0877,3.0864,3.0866,3.0868,3.0869,3.0921,3.0921,0,0,0,0,0,0,3.0622,3.0634,3.071,3.0715,3.0673,3.0721,3.073,3.0747,3.079,3.0797,3.0773,3.0775,3.0833,3.0838,3.0843,3.0861,3.0867,3.0869,3.087,3.0922,3.0921,3.0921,0,0,0,0,0,0,3.062,3.0629,3.0708,3.0675,3.0686,3.0723,3.0742,3.0748,3.0761,3.0798,3.0804,3.078,3.0833,3.084,3.0863,3.0863,3.087,3.0872,3.0922,3.0922,3.0921,3.0896,0,0,0,0,0,0,3.0617,3.0628,3.0635,3.0675,3.0687,3.0728,3.0742,3.0749,3.0766,3.0768,3.0805,3.0812,3.0833,3.0859,3.0865,3.0867,3.0874,3.0922,3.0922,3.0921,3.0897,3.0895,3.0894,0,0,0,0,0,3.0613,3.0625,3.0636,3.0645,3.0698,3.0728,3.0735,3.0761,3.0766,3.0772,3.0795,3.081,3.0862,3.0861,3.0868,3.0871,3.0922,3.0922,3.0921,3.0898,3.0896,3.0894,0,0,0,0,0,0,3.0584,3.0631,3.0643,3.0669,3.0694,3.0734,3.0743,3.0758,3.0782,3.0783,3.0813,3.0821,3.084,3.0858,3.0855,3.0885,3.0893,3.0894,3.0873,3.0871,3.0869,3.0864,3.0876,0,0,0,0,0,3.0581,3.0603,3.0642,3.0661,3.0673,3.0706,3.072,3.0738,3.0764,3.0775,3.08,3.0824,3.0845,3.0859,3.0881,3.0899,3.0906,3.0904,3.0903,3.0901,3.0902,3.091,3.0909,3.0921,3.0921,3.0921,0,0,3.0575,3.0603,3.0615,3.0656,3.0678,3.0698,3.0715,3.0736,3.0751,3.0778,3.0801,3.0819,3.0848,3.0868,3.0878,3.0883,3.09,3.0901,3.0899,3.0901,3.0909,3.0908,3.0907,3.0921,3.0921,3.0921,0,0,3.0573,3.0597,3.0615,3.0636,3.0668,3.0689,3.0693,3.0729,3.0743,3.0766,3.0786,3.0803,3.084,3.0859,3.0873,3.0875,3.0889,3.0881,3.0871,3.0879,3.0878,3.0877,3.0876,3.0876,3.0881,3.0881,3.0881,0,3.056,3.0594,3.0621,3.0641,3.0657,3.0683,3.0699,3.0717,3.0755,3.0764,3.077,3.0815,3.0836,3.086,3.0859,3.0871,3.0874,3.0877,3.0876,3.0876,3.0876,3.0875,3.0874,3.088,3.088,3.088,3.088,0,3.0575,3.0597,3.0607,3.0643,3.066,3.0678,3.0706,3.0719,3.0734,3.0754,3.0775,3.0801,3.0828,3.0835,3.085,3.0859,3.0861,3.0871,3.088,3.0873,3.0872,3.0872,3.0878,3.0879,3.0879,3.0879,0,0,3.056,3.0609,3.0612,3.0627,3.0663,3.068,3.0696,3.0723,3.0733,3.0757,3.0771,3.08,3.0808,3.0824,3.0841,3.0848,3.0845,3.0857,3.0858,3.0853,3.0854,3.0846,3.0845,3.0854,3.0854,3.0854,3.0851,0,3.0563,3.0597,3.062,3.0644,3.0663,3.0686,3.07,3.0722,3.074,3.0757,3.0776,3.0796,3.0806,3.0816,3.0823,3.0843,3.0845,3.0844,3.0865,3.0865,3.0857,3.0846,3.0838,3.0834,3.0851,3.0851,3.0851,0,3.0572,3.0594,3.062,3.0651,3.066,3.0673,3.0697,3.0714,3.0738,3.075,3.0767,3.0783,3.08,3.0807,3.0828,3.0827,3.0836,3.0847,3.0848,3.085,3.0858,3.0847,3.0834,3.0833,3.0852,3.0852,3.0852,0,3.0556,3.0593,3.0612,3.0625,3.0662,3.067,3.0685,3.071,3.0723,3.0743,3.0752,3.0774,3.0785,3.0801,3.0822,3.0825,3.084,3.085,3.0849,3.0849,3.0852,3.0851,3.0839,3.0859,3.0859,3.0859,3.0859,0,3.0556,3.0571,3.0606,3.0618,3.0633,3.0659,3.0673,3.069,3.0711,3.0725,3.0745,3.0757,3.0784,3.0799,3.0815,3.083,3.0835,3.0844,3.0848,3.0842,3.0841,3.0849,3.0849,3.0859,3.0859,3.0859,3.0859,0,3.0542,3.0566,3.0589,3.0621,3.0629,3.0639,3.0666,3.0677,3.0695,3.0712,3.0717,3.0744,3.0762,3.0785,3.081,3.0821,3.0833,3.0839,3.0825,3.0827,3.0825,3.0824,3.0817,3.0817,3.0837,3.0836,3.0836,0,3.0541,3.0553,3.0585,3.0596,3.0611,3.0629,3.0642,3.0666,3.0679,3.0705,3.0712,3.0732,3.0749,3.0776,3.0797,3.0816,3.0823,3.0819,3.0826,3.0818,3.0821,3.082,3.082,3.0817,3.0817,3.0816,3.0816,0,3.0536,3.0546,3.0565,3.0587,3.0602,3.0621,3.064,3.0647,3.0674,3.0687,3.0706,3.0719,3.0744,3.0762,3.0783,3.0797,3.081,3.0814,3.0814,3.0808,3.0799,3.0803,3.0819,3.0814,3.0814,3.0814,3.0814,3.0815,3.0528,3.0538,3.0562,3.0581,3.0597,3.0614,3.0625,3.0643,3.066,3.0683,3.0695,3.0713,3.0733,3.0763,3.0776,3.0788,3.0794,3.0795,3.0795,3.0795,3.0792,3.0797,3.0792,3.0792,3.0793,3.0793,3.0793,0,3.0522,3.0538,3.0555,3.0581,3.0595,3.0607,3.0627,3.0638,3.0654,3.0672,3.0688,3.0708,3.0725,3.0746,3.0764,3.077,3.0777,3.0774,3.0774,3.0776,3.0788,3.0785,3.0768,3.0768,3.0768,3.0768,3.0768,3.0768,3.0521,3.0538,3.0551,3.0575,3.059,3.0608,3.0619,3.0633,3.0648,3.0669,3.0683,3.0697,3.0716,3.0735,3.075,3.0756,3.0761,3.0756,3.0763,3.0774,3.0776,3.0778,3.0775,3.0757,3.0757,3.0751,3.0751,3.0751]}]]